Location: Gisborne
(38.6530°S, 178.0040°E)
Time: 14:54:37
(UTC+13:00)

Cosmos 1408 - Pass Details

Date: 24 January 2019
Orbit: 472 x 495 km, 82.6° (Epoch: 13 October)

Event Time Altitude Azimuth Distance (km) Brightness Sun altitude
Rises 20:51:00 0° 188° (S) 2,626 6.9 -4.5°
Reaches altitude 10° 20:53:09 10° 187° (S) 1,734 5.9 -4.9°
Maximum altitude 20:56:57 89° 263° (W) 512 2.7 -5.6°
Drops below altitude 10° 21:00:42 10° 6° (N) 1,705 5.0 -6.2°
Sets 21:02:48 0° 6° (N) 2,578 5.9 -6.5°
